Date String (YYYY-MM-DD hh:mm:ss) UTC,Instrument flags,Ambient pressure (hPa),Sample flow (lpm),Bypass flow (lpm),Sample temperature (°C),Ambient temperature (°C),ASC tube jacket temperature (°C),LED temperature (°C),Box temperature (°C),Sample RH (%),Span deviation,Mass concentration (μg/m³),Mass concentration (μg/m³),Mass concentration (μg/m³)
DateTimeUTC,F1_M11,P_M11,Q1_M11,Q2_M11,T1_M11,T2_M11,T3_M11,T4_M11,T5_M11,U1_M11,ZSPAN_M11,X0_M11,X2_M11,X1_M11
2021-09-22 04:00:00,,0838.5,4.99,0.00,30.0,29.2,00.0,39.2,31.7,11.6,0000.0,0009.39,0003.42,0002.51
2021-09-22 04:01:00,,0838.5,5.00,0.00,30.0,29.1,00.0,39.2,31.7,11.6,0000.0,0009.95,0003.45,0002.53
2021-09-22 04:02:00,,0838.5,5.01,0.00,30.0,29.1,00.0,39.2,31.7,11.6,0000.0,0010.04,0003.48,0002.53
2021-09-22 04:03:00,,0838.5,5.01,0.00,30.0,29.1,00.0,39.1,31.7,11.7,0000.0,0009.74,0003.48,0002.53
2021-09-22 04:04:00,,0838.5,5.00,0.00,30.0,29.1,00.0,39.1,31.7,11.7,0000.0,0010.24,0003.46,0002.54
2021-09-22 04:05:00,,0838.5,4.98,0.00,30.0,29.1,00.0,39.1,31.6,11.7,0000.0,0010.97,0003.45,0002.55
2021-09-22 04:06:00,,0838.5,5.01,0.00,30.0,29.1,00.0,39.1,31.7,11.7,0000.0,0010.42,0003.43,0002.56
2021-09-22 04:07:00,,0838.5,5.00,0.00,30.0,29.1,00.0,39.1,31.7,11.7,0000.0,0010.39,0003.41,0002.58
2021-09-22 04:08:00,,0838.5,4.99,0.00,30.0,29.1,00.0,39.1,31.7,11.7,0000.0,0009.76,0003.40,0002.58
2021-09-22 04:09:00,,0838.5,4.99,0.00,30.0,29.1,00.0,39.1,31.7,11.7,0000.0,0009.93,0003.40,0002.58
2021-09-22 04:10:00,,0838.5,5.01,0.00,30.0,29.1,00.0,39.1,31.7,11.7,0000.0,0010.47,0003.38,0002.59
2021-09-22 04:11:00,,0838.5,4.99,0.00,30.0,29.1,00.0,39.1,31.7,11.6,0000.0,0010.37,0003.37,0002.60
2021-09-22 04:12:00,,0838.5,5.02,0.00,30.0,29.1,00.0,39.1,31.6,11.7,0000.0,0009.76,0003.33,0002.59
2021-09-22 04:13:00,,0838.5,5.00,0.00,30.0,29.1,00.0,39.1,31.6,11.7,0000.0,0009.89,0003.32,0002.59
2021-09-22 04:14:00,,0838.5,5.00,0.00,29.9,29.0,00.0,39.1,31.6,11.7,0000.0,0010.56,0003.33,0002.60
2021-09-22 04:15:00,,0838.4,5.00,0.00,30.0,29.0,00.0,39.1,31.6,11.7,0000.0,0010.59,0003.32,0002.61
2021-09-22 04:16:00,,0838.4,5.00,0.00,30.0,29.0,00.0,39.1,31.6,11.7,0000.0,0009.87,0003.27,0002.60
2021-09-22 04:17:00,,0838.4,4.99,0.00,30.0,29.0,00.0,39.1,31.7,11.7,0000.0,0010.06,0003.25,0002.60
2021-09-22 04:18:00,,0838.3,5.01,0.00,30.0,29.0,00.0,39.1,31.7,11.6,0000.0,0010.21,0003.28,0002.59
2021-09-22 04:19:00,,0838.4,5.01,0.00,30.0,29.0,00.0,39.1,31.7,11.7,0000.0,0010.53,0003.28,0002.57
2021-09-22 04:20:00,,0838.4,4.99,0.00,30.0,29.1,00.0,39.1,31.7,11.6,0000.0,0010.28,0003.30,0002.57
2021-09-22 04:21:00,,0838.3,4.99,0.00,29.9,29.0,00.0,39.1,31.7,11.6,0000.0,0009.61,0003.28,0002.57
2021-09-22 04:22:00,,0838.4,5.01,0.00,29.9,29.0,00.0,39.1,31.6,11.6,0000.0,0009.63,0003.27,0002.56
2021-09-22 04:23:00,,0838.3,5.00,0.00,29.9,29.0,00.0,39.1,31.6,11.5,0000.0,0009.98,0003.29,0002.57
2021-09-22 04:24:00,,0838.3,5.00,0.00,29.9,29.0,00.0,39.1,31.6,11.6,0000.0,0010.20,0003.28,0002.56
2021-09-22 04:25:00,,0838.3,5.00,0.00,29.9,29.0,00.0,39.1,31.6,11.6,0000.0,0009.73,0003.28,0002.56
2021-09-22 04:26:00,,0838.2,5.01,0.00,29.9,29.0,00.0,39.1,31.6,11.6,0000.0,0009.21,0003.31,0002.57
2021-09-22 04:27:00,,0838.2,4.99,0.00,29.9,29.0,00.0,39.1,31.6,11.6,0000.0,0009.35,0003.33,0002.58
2021-09-22 04:28:00,,0838.2,5.00,0.00,29.9,29.0,00.0,39.1,31.6,11.6,0000.0,0009.03,0003.30,0002.57
2021-09-22 04:29:00,,0838.2,5.01,0.00,29.9,29.0,00.0,39.1,31.6,11.6,0000.0,0009.06,0003.29,0002.58
2021-09-22 04:30:00,,0838.2,5.01,0.00,29.9,29.0,00.0,39.1,31.6,11.6,0000.0,0008.75,0003.30,0002.59
2021-09-22 04:31:00,,0838.2,4.99,0.00,29.9,29.0,00.0,39.1,31.6,11.6,0000.0,0009.54,0003.30,0002.59
2021-09-22 04:32:00,,0838.2,5.01,0.00,29.9,29.0,00.0,39.1,31.6,11.6,0000.0,0009.36,0003.29,0002.60
2021-09-22 04:33:00,,0838.1,5.00,0.00,29.9,29.0,00.0,39.1,31.6,11.6,0000.0,0009.43,0003.33,0002.61
2021-09-22 04:34:00,,0838.1,5.00,0.00,29.9,29.0,00.0,39.1,31.6,11.6,0000.0,0009.08,0003.33,0002.60
2021-09-22 04:35:00,,0838.1,5.00,0.00,29.9,28.9,00.0,39.1,31.6,11.6,0000.0,0008.76,0003.35,0002.60
2021-09-22 04:36:00,,0838.1,5.02,0.00,29.9,28.9,00.0,39.1,31.6,11.6,0000.0,0008.47,0003.34,0002.59
2021-09-22 04:37:00,,0838.1,4.99,0.00,29.9,29.0,00.0,39.1,31.6,11.5,0000.0,0008.44,0003.33,0002.59
2021-09-22 04:38:00,,0838.1,4.99,0.00,29.9,29.0,00.0,39.1,31.5,11.5,0000.0,0008.18,0003.35,0002.57
2021-09-22 04:39:00,,0838.1,5.00,0.00,29.9,28.9,00.0,39.1,31.5,11.6,0000.0,0008.68,0003.40,0002.56
2021-09-22 04:40:00,,0838.1,5.01,0.00,29.9,28.9,00.0,39.1,31.5,11.6,0000.0,0008.72,0003.41,0002.55
2021-09-22 04:41:00,,0838.0,4.99,0.00,29.9,28.9,00.0,39.1,31.6,11.5,0000.0,0008.60,0003.39,0002.55
2021-09-22 04:42:00,,0838.0,5.01,0.00,29.9,28.9,00.0,39.0,31.5,11.5,0000.0,0007.77,0003.38,0002.54
2021-09-22 04:43:00,,0838.1,5.01,0.00,29.9,28.9,00.0,39.0,31.5,11.5,0000.0,0008.25,0003.40,0002.54
2021-09-22 04:44:00,,0838.1,5.00,0.00,29.9,28.9,00.0,39.0,31.5,11.5,0000.0,0008.94,0003.40,0002.52
2021-09-22 04:45:00,,0838.1,4.98,0.00,29.8,28.9,00.0,39.0,31.5,11.5,0000.0,0009.40,0003.43,0002.55
2021-09-22 04:46:00,,0838.1,5.00,0.00,29.8,28.9,00.0,39.0,31.4,11.5,0000.0,0011.11,0003.49,0002.57
2021-09-22 04:47:00,,0838.0,5.00,0.00,29.8,28.9,00.0,39.0,31.5,11.5,0000.0,0011.97,0003.53,0002.58
2021-09-22 04:48:00,,0838.0,5.00,0.00,29.8,28.9,00.0,39.0,31.5,11.5,0000.0,0012.50,0003.54,0002.59
2021-09-22 04:49:00,,0838.0,4.99,0.00,29.8,28.9,00.0,39.0,31.5,11.5,0000.0,0012.71,0003.56,0002.60
2021-09-22 04:50:00,,0838.0,5.02,0.00,29.8,28.8,00.0,39.0,31.5,11.6,0000.0,0012.66,0003.55,0002.62
2021-09-22 04:51:00,,0838.0,4.99,0.00,29.8,28.9,00.0,39.0,31.5,11.6,0000.0,0012.57,0003.54,0002.63
2021-09-22 04:52:00,,0838.0,5.00,0.00,29.8,28.9,00.0,39.0,31.4,11.5,0000.0,0012.59,0003.58,0002.64
2021-09-22 04:53:00,,0838.0,4.99,0.00,29.8,28.9,00.0,39.0,31.5,11.5,0000.0,0012.47,0003.58,0002.66
2021-09-22 04:54:00,,0838.0,5.01,0.00,29.8,28.8,00.0,39.0,31.5,11.5,0000.0,0012.21,0003.57,0002.67
2021-09-22 04:55:00,,0838.0,5.01,0.00,29.8,28.9,00.0,39.0,31.5,11.5,0000.0,0012.26,0003.55,0002.69
2021-09-22 04:56:00,,0838.0,4.99,0.00,29.8,28.9,00.0,39.0,31.5,11.5,0000.0,0013.46,0003.52,0002.68
2021-09-22 04:57:00,,0838.0,5.00,0.00,29.8,28.8,00.0,39.0,31.5,11.5,0000.0,0012.69,0003.46,0002.67
2021-09-22 04:58:00,,0838.0,5.01,0.00,29.8,28.8,00.0,39.0,31.5,11.5,0000.0,0012.62,0003.44,0002.67
2021-09-22 04:59:00,,0838.0,5.00,0.00,29.8,28.8,00.0,39.0,31.4,11.5,0000.0,0012.54,0003.45,0002.67
